Location: Cahas Mountain Overlook
(37.0833°N, 80.1000°W)
Time: 00:20:11
(UTC-04:00)

SR - Visible Passes

Search period start: 10 August 2022 00:00
Search period end: 20 August 2022 00:00
Orbit: 572 x 880 km, 66.7° (Epoch: 09 August)

Date Brightness Start Highest point End Pass type
(mag) Time Alt. Az. Time Alt. Az. Time Alt. Az.
10 Aug ? 20:51:15 10° NW 20:56:50 54° WSW 21:02:00 10° S visible
11 Aug ? 21:45:28 10° WNW 21:47:59 13° WSW 21:50:26 10° SW visible
12 Aug ? 20:53:33 10° NW 20:58:19 28° WSW 21:02:48 10° SSW visible
14 Aug ? 20:56:42 10° WNW 20:59:38 15° WSW 21:02:28 10° SW visible
